Home > Weather > Haldimand > Past weeks

Flag for Canada Weather for the Past 2 Weeks in Haldimand, Ontario, Canada

Now
45 °F

Drizzle. Fog.


Feels Like: 38 °F
Forecast: 45 / 51 °F
Wind: 15 mph from Northeast

Location: Hamilton Airport

Current Time: May 1, 2016 at 1:40:29 PM

Latest Report: May 1, 2016 at 1:00 PM


Visibility: 0 mi

Pressure: 29.97 "Hg

Humidity: 100%

Dew Point: 45 °F

Location of HaldimandLocation

Historic Weather in Haldimand — Graph

°F

Haldimand Temperature Yesterday

Maximum temperature yesterday: 54 °F (at 2:00 PM)
Minimum temperature yesterday: 36 °F (at 3:00 AM)
Average temperature yesterday: 46 °F

High & Low Weather Summary for the Past Weeks

 TemperatureHumidityPressure
High75 °F (Apr 18, 2:00 PM)100% (Apr 22, 7:00 AM)30.49 "Hg (Apr 22, 7:00 AM)
Low30 °F (Apr 27, 1:00 AM)23% (Apr 17, 5:00 PM)29.71 "Hg (Apr 26, 5:00 AM)
Average47 °F60%30.11 "Hg
* Reported Apr 16 12:00 Noon — May 1 12:00 Noon, Haldimand, Weather by CustomWeather, © 2016

Note: Actual official high and low records may vary slightly from our data, if they occured in-between our weather recording intervals... More about our weather records

Advertising

Haldimand Weather History for the Previous 24 Hours

Scroll right to see more
 ConditionsComfort  
Time TempWeatherWind HumidityBarometerVisibility
12:00 PM
Sun, May 1
43 °FDrizzle. Fog.14 mph100%29.98 "Hg0 mi
11:00 AM43 °FDrizzle. Fog.15 mph100%29.98 "Hg0 mi
10:00 AM43 °FDrizzle. Fog.17 mph93%29.98 "Hg0 mi
9:00 AM41 °FDrizzle. Fog.16 mph100%29.97 "Hg1 mi
8:00 AM43 °FLight rain. Fog.15 mph93%29.97 "Hg1 mi
7:00 AM43 °FLight rain. Fog.15 mph100%29.96 "Hg0 mi
6:00 AM41 °FLight rain. Fog.18 mph100%29.94 "Hg1 mi
5:00 AM43 °FRain. Mostly cloudy.10 mph93%29.99 "Hg7 mi
4:00 AM43 °FRain. Overcast.10 mph93%30.01 "Hg7 mi
3:00 AM43 °FLight rain. Overcast.8 mph93%30.01 "Hg7 mi
2:00 AM45 °FLight rain. Overcast.7 mph87%30.04 "Hg7 mi
1:00 AM45 °FLight rain. Overcast.7 mph87%30.06 "Hg7 mi
12:00 AM46 °FLight rain. Overcast.7 mph71%30.07 "Hg8 mi
11:00 PM
Sat, Apr 30
46 °FOvercast.8 mph62%30.09 "Hg10 mi
10:00 PM48 °FOvercast.13 mph54%30.11 "Hg10 mi
9:00 PM48 °FMore clouds than sun.12 mph54%30.12 "Hg15 mi
8:00 PM48 °FMore clouds than sun.12 mph50%30.12 "Hg15 mi
7:00 PM48 °FMore clouds than sun.16 mph43%30.13 "Hg15 mi
6:00 PM50 °FPartly sunny.15 mph40%30.16 "Hg15 mi
5:00 PM52 °FPartly sunny.16 mph38%30.15 "Hg15 mi
4:00 PM52 °FBroken clouds.16 mph41%30.16 "Hg15 mi
3:00 PM52 °FBroken clouds.17 mph41%30.17 "Hg15 mi
2:00 PM54 °FBroken clouds.16 mph41%30.19 "Hg15 mi
1:00 PM52 °FPartly sunny.15 mph47%30.19 "Hg15 mi
Weather by CustomWeather, © 2016

See weather overviewHow to use our weather pages